TimeWET,TemperatureF,Dew PointF,Humidity,Sea Level PressureIn,VisibilityMPH,Wind Direction,Wind SpeedMPH,Gust SpeedMPH,PrecipitationIn,Events,Conditions,WindDirDegrees,DateUTC
12:00 AM,65,51,52,29.94,6,ENE,6.9,,,,,70,2012-10-16 00:00:00
12:00 AM,66.2,51.8,60,29.98,-9999.0,East,6.9,-,N/A,,Clear,80,2012-10-16 00:00:00
1:00 AM,64.4,51.8,64,29.95,-9999.0,East,6.9,-,N/A,,Clear,80,2012-10-16 01:00:00
1:30 AM,64.4,51.8,64,29.95,-9999.0,ENE,6.9,-,N/A,,Clear,70,2012-10-16 01:30:00
2:00 AM,62.6,51.8,68,29.95,-9999.0,ENE,5.8,-,N/A,,Clear,70,2012-10-16 02:00:00
2:30 AM,62.6,51.8,68,29.95,-9999.0,East,6.9,-,N/A,,Clear,80,2012-10-16 02:30:00
3:00 AM,62,51,58,29.91,6,ENE,5.8,,,,,70,2012-10-16 03:00:00
3:00 AM,62.6,51.8,68,29.95,-9999.0,ENE,5.8,-,N/A,,Clear,70,2012-10-16 03:00:00
3:30 AM,62.6,51.8,68,29.95,-9999.0,East,5.8,-,N/A,,Clear,80,2012-10-16 03:30:00
4:00 AM,62.6,51.8,68,29.92,-9999.0,East,6.9,-,N/A,,Clear,80,2012-10-16 04:00:00
4:30 AM,60.8,51.8,72,29.92,-9999.0,East,8.1,-,N/A,,Clear,80,2012-10-16 04:30:00
5:00 AM,60.8,51.8,72,29.95,-9999.0,East,6.9,-,N/A,,Clear,80,2012-10-16 05:00:00
5:30 AM,60.8,50.0,68,29.95,-9999.0,East,5.8,-,N/A,,Clear,80,2012-10-16 05:30:00
6:00 AM,60,50,62,29.93,6,East,5.8,,,,,100,2012-10-16 06:00:00
6:00 AM,60.8,50.0,68,29.95,-9999.0,East,5.8,-,N/A,,Clear,100,2012-10-16 06:00:00
6:30 AM,59.0,50.0,72,29.95,-9999.0,East,5.8,-,N/A,,Clear,100,2012-10-16 06:30:00
7:00 AM,59.0,51.8,77,29.95,-9999.0,East,5.8,-,N/A,,Clear,100,2012-10-16 07:00:00
7:30 AM,62.6,51.8,68,29.95,-9999.0,East,6.9,-,N/A,,Clear,90,2012-10-16 07:30:00
8:00 AM,64.4,51.8,64,29.98,-9999.0,ESE,5.8,-,N/A,,Clear,110,2012-10-16 08:00:00
8:30 AM,68.0,51.8,56,29.98,-9999.0,Variable,2.3,-,N/A,,Clear,0,2012-10-16 08:30:00
9:00 AM,71,52,40,29.94,6,ENE,3.5,,,,,60,2012-10-16 09:00:00
9:00 AM,71.6,51.8,50,29.98,-9999.0,Variable,1.2,-,N/A,,Clear,0,2012-10-16 09:00:00
9:30 AM,73.4,53.6,50,30.01,-9999.0,ENE,3.5,-,N/A,,Clear,60,2012-10-16 09:30:00
10:00 AM,73.4,51.8,47,30.01,-9999.0,NE,4.6,-,N/A,,Clear,50,2012-10-16 10:00:00
10:30 AM,75.2,53.6,47,30.01,-9999.0,ENE,4.6,-,N/A,,Clear,60,2012-10-16 10:30:00
11:00 AM,78.8,51.8,39,29.98,-9999.0,ENE,5.8,-,N/A,,Clear,60,2012-10-16 11:00:00
11:30 AM,80.6,51.8,37,29.98,-9999.0,NE,6.9,-,N/A,,Clear,50,2012-10-16 11:30:00
12:00 PM,82,50,23,29.88,6,ENE,4.6,,,,,60,2012-10-16 12:00:00
12:00 PM,80.6,50.0,34,29.98,-9999.0,ENE,4.6,-,N/A,,Clear,60,2012-10-16 12:00:00
12:30 PM,82.4,48.2,30,29.95,-9999.0,ENE,5.8,-,N/A,,Clear,60,2012-10-16 12:30:00
1:00 PM,84.2,46.4,27,29.92,-9999.0,East,6.9,-,N/A,,Clear,80,2012-10-16 13:00:00
1:30 PM,86.0,44.6,23,29.92,6.2,ENE,5.8,-,N/A,,Partly Cloudy,70,2012-10-16 13:30:00
2:00 PM,86.0,44.6,23,29.89,6.2,NE,5.8,-,N/A,,Partly Cloudy,50,2012-10-16 14:00:00
2:30 PM,89.6,46.4,22,29.89,6.2,Variable,3.5,-,N/A,,Partly Cloudy,0,2012-10-16 14:30:00
3:00 PM,89,45,13,29.79,6,NNE,6.9,,,,Scattered Clouds,20,2012-10-16 15:00:00
3:00 PM,89.6,44.6,21,29.89,6.2,NNW,5.8,-,N/A,,Partly Cloudy,340,2012-10-16 15:00:00
3:30 PM,89.6,44.6,21,29.89,6.2,Variable,3.5,-,N/A,,Partly Cloudy,0,2012-10-16 15:30:00
4:00 PM,89.6,46.4,22,29.89,6.2,Variable,3.5,-,N/A,,Partly Cloudy,0,2012-10-16 16:00:00
4:30 PM,89.6,48.2,24,29.89,6.2,NW,4.6,-,N/A,,Partly Cloudy,310,2012-10-16 16:30:00
5:00 PM,89.6,48.2,24,29.89,6.2,NNW,6.9,-,N/A,,Partly Cloudy,330,2012-10-16 17:00:00
5:30 PM,87.8,46.4,24,29.89,6.2,NNW,6.9,-,N/A,,Partly Cloudy,330,2012-10-16 17:30:00
6:00 PM,86,46,15,29.81,6,NNW,5.8,,,,Scattered Clouds,340,2012-10-16 18:00:00
6:00 PM,86.0,46.4,25,29.89,6.2,NNW,5.8,-,N/A,,Partly Cloudy,340,2012-10-16 18:00:00
6:30 PM,84.2,46.4,27,29.92,6.2,North,4.6,-,N/A,,Partly Cloudy,350,2012-10-16 18:30:00
7:00 PM,82.4,44.6,26,29.92,-9999.0,NNE,5.8,-,N/A,,Clear,30,2012-10-16 19:00:00
7:30 PM,80.6,46.4,30,29.92,-9999.0,NNE,4.6,-,N/A,,Clear,30,2012-10-16 19:30:00
8:00 PM,78.8,46.4,32,29.92,-9999.0,East,4.6,-,N/A,,Clear,80,2012-10-16 20:00:00
8:30 PM,77.0,44.6,32,29.95,-9999.0,East,5.8,-,N/A,,Clear,100,2012-10-16 20:30:00
9:00 PM,76,46,23,29.88,6,East,5.8,,,,,100,2012-10-16 21:00:00
9:00 PM,77.0,46.4,34,29.95,-9999.0,East,6.9,-,N/A,,Clear,100,2012-10-16 21:00:00
9:30 PM,77.0,46.4,34,29.95,-9999.0,ESE,5.8,-,N/A,,Clear,110,2012-10-16 21:30:00
10:00 PM,77.0,46.4,34,29.95,-9999.0,SE,5.8,-,N/A,,Clear,140,2012-10-16 22:00:00
10:30 PM,75.2,46.4,36,29.95,-9999.0,ESE,4.6,-,N/A,,Clear,110,2012-10-16 22:30:00
11:00 PM,73.4,46.4,38,29.95,-9999.0,East,3.5,-,N/A,,Clear,80,2012-10-16 23:00:00
11:30 PM,71.6,48.2,43,29.95,-9999.0,Variable,2.3,-,N/A,,Clear,0,2012-10-16 23:30:00